Location: Lake Sonoma
(38.7200°N, 123.0564°W)
Time: 23:27:35
(UTC-07:00)

ISS - Visible Passes

Search period start: 26 May 2016 00:00
Search period end: 05 June 2016 00:00
Orbit: 402 x 404 km, 51.6° (Epoch: 26 May)

Date Brightness Start Highest point End Pass type
(mag) Time Alt. Az. Time Alt. Az. Time Alt. Az.
26 May -0.4 00:08:05 17° N 00:08:05 17° N 00:09:40 10° NNE visible
26 May 0.1 03:20:55 10° NNW 03:22:28 13° NNE 03:24:01 10° NE visible
26 May -2.4 04:56:19 10° NW 04:59:31 52° NE 05:02:41 10° ESE visible
26 May -2.6 21:34:58 10° SSW 21:37:55 31° SE 21:40:52 10° ENE visible
26 May -1.2 23:11:30 10° W 23:14:22 27° NNW 23:17:14 10° NNE visible
27 May 0.4 02:29:00 10° N 02:29:23 10° N 02:29:45 10° NNE visible
27 May -1.2 04:03:45 10° NNW 04:06:40 29° NNE 04:09:34 10° E visible
27 May -2.3 22:18:20 10° WSW 22:21:30 48° NW 22:24:41 10° NE visible
27 May 0.2 23:57:07 10° NW 23:58:35 12° NNW 00:00:01 10° N visible
28 May -0.4 03:11:17 10° NNW 03:13:43 19° NNE 03:16:10 10° ENE visible
28 May -3.4 04:47:12 10° WNW 04:50:25 61° SW 04:53:37 10° SE visible
28 May -3.4 21:25:28 10° SW 21:28:43 85° SE 21:32:00 10° NE visible
28 May -0.2 23:03:21 10° WNW 23:05:32 16° NNW 23:07:43 10° NNE visible
29 May 0.0 02:18:55 10° NNW 02:20:43 14° NNE 02:22:31 10° NE visible
29 May -2.9 03:54:26 10° NW 03:57:41 64° NE 04:00:55 10° ESE visible
29 May -0.8 22:09:49 10° W 22:12:33 24° NNW 22:15:18 10° NNE visible
30 May 0.3 01:26:46 10° N 01:27:38 11° NNE 01:28:30 10° NNE visible
30 May -1.6 03:01:49 10° NW 03:04:51 34° NNE 03:07:51 10° E visible
30 May -2.2 04:38:30 10° WNW 04:41:10 23° SW 04:43:49 10° S visible
30 May -1.8 21:16:34 10° WSW 21:19:39 40° NNW 21:22:46 10° NE visible
30 May 0.2 22:55:38 10° NW 22:56:48 11° NNW 22:57:59 10° N visible
31 May -0.5 02:09:19 10° NNW 02:10:52 18° N 02:10:52 18° N visible
31 May -0.1 22:01:44 10° WNW 22:03:44 15° NNW 22:05:44 10° NNE visible
01 Jun -0.2 01:16:55 10° NNW 01:18:38 15° NNE 01:18:38 15° NNE visible
01 Jun -0.5 21:08:07 10° W 21:10:43 21° NNW 21:13:19 10° NNE visible
02 Jun 0.0 00:24:39 10° N 00:25:51 11° NNE 00:26:59 10° NE visible
02 Jun 0.1 21:54:09 10° NNW 21:55:01 11° NNW 21:55:51 10° N visible
03 Jun -0.2 01:07:19 10° NNW 01:08:08 15° NNW 01:08:08 15° NNW visible
03 Jun -0.2 21:00:07 10° NW 21:01:54 14° NNW 21:03:41 10° NNE visible
04 Jun -0.5 00:14:52 10° NNW 00:16:50 16° NNE 00:16:50 16° NNE visible
04 Jun -0.3 23:22:32 10° N 23:24:00 12° NNE 23:25:28 10° NE visible
